TimeGMT,TemperatureF,Dew PointF,Humidity,Sea Level PressureIn,VisibilityMPH,Wind Direction,Wind SpeedMPH,Gust SpeedMPH,PrecipitationIn,Events,Conditions,WindDirDegrees,DateUTC
12:00 AM,43,40,83,29.46,12,SSW,8.9,,,Rain,Light Rain Showers,210,2012-11-10 00:00:00
12:00 AM,42.8,39.2,87,29.44,6.2,SSW,9.2,-,N/A,Rain,Light Rain Showers,210,2012-11-10 00:00:00
12:30 AM,42.8,39.2,87,29.44,6.2,SW,9.2,-,N/A,,Partly Cloudy,220,2012-11-10 00:30:00
1:00 AM,42.8,39.2,87,29.44,6.2,SSE,6.9,-,N/A,,Partly Cloudy,160,2012-11-10 01:00:00
1:30 AM,41.0,37.4,87,29.42,6.2,South,8.1,-,N/A,,Partly Cloudy,190,2012-11-10 01:30:00
2:00 AM,42.8,41.0,93,29.42,6.2,SW,9.2,-,N/A,Rain,Light Rain Showers,220,2012-11-10 02:00:00
2:30 AM,42.8,41.0,93,29.42,6.2,SSW,11.5,-,N/A,,Scattered Clouds,210,2012-11-10 02:30:00
3:00 AM,42.8,41.0,93,29.42,6.2,SSW,11.5,-,N/A,,Scattered Clouds,200,2012-11-10 03:00:00
3:30 AM,42.8,39.2,87,29.39,6.2,South,8.1,-,N/A,,Mostly Cloudy,190,2012-11-10 03:30:00
4:00 AM,41.0,39.2,93,29.39,6.2,South,9.2,-,N/A,,Mostly Cloudy,190,2012-11-10 04:00:00
4:30 AM,42.8,39.2,87,29.39,3.7,SSW,11.5,-,N/A,Rain,Light Rain Showers,200,2012-11-10 04:30:00
5:00 AM,42.8,42.8,100,29.39,6.2,SSW,9.2,-,N/A,,Mostly Cloudy,210,2012-11-10 05:00:00
5:30 AM,44.6,42.8,93,29.39,6.2,West,10.4,-,N/A,Rain,Light Rain Showers,260,2012-11-10 05:30:00
6:00 AM,44,43,95,29.39,11,WSW,8.9,,,Rain,Light Rain Showers,240,2012-11-10 06:00:00
6:00 AM,44.6,42.8,93,29.39,6.2,WSW,8.1,-,N/A,,Mostly Cloudy,240,2012-11-10 06:00:00
6:30 AM,42.8,41.0,93,29.39,6.2,West,10.4,-,N/A,Rain,Light Rain Showers,260,2012-11-10 06:30:00
7:00 AM,42.8,41.0,93,29.39,5.0,West,8.1,-,N/A,Rain,Light Rain Showers,260,2012-11-10 07:00:00
8:00 AM,44.6,42.8,93,29.39,6.2,WSW,6.9,-,N/A,,Mostly Cloudy,240,2012-11-10 08:00:00
8:30 AM,44.6,42.8,93,29.42,6.2,NW,10.4,-,N/A,,Mostly Cloudy,310,2012-11-10 08:30:00
9:00 AM,42.8,41.0,93,29.42,6.2,West,6.9,-,N/A,,Scattered Clouds,260,2012-11-10 09:00:00
9:30 AM,42.8,39.2,87,29.42,6.2,West,16.1,-,N/A,,Mostly Cloudy,280,2012-11-10 09:30:00
10:00 AM,44.6,42.8,93,29.42,6.2,West,8.1,-,N/A,,Partly Cloudy,280,2012-11-10 10:00:00
10:30 AM,44.6,41.0,87,29.42,6.2,West,11.5,-,N/A,,Scattered Clouds,270,2012-11-10 10:30:00
11:00 AM,46.4,41.0,81,29.42,6.2,WNW,9.2,-,N/A,,Scattered Clouds,290,2012-11-10 11:00:00
11:30 AM,46.4,41.0,81,29.42,6.2,SW,9.2,-,N/A,,Partly Cloudy,230,2012-11-10 11:30:00
12:00 PM,48,39,63,29.44,10,West,13.4,,,Rain,Light Rain Showers,260,2012-11-10 12:00:00
12:00 PM,48.2,39.2,71,29.42,6.2,West,12.7,-,N/A,Rain,Light Rain Showers,260,2012-11-10 12:00:00
12:30 PM,46.4,37.4,71,29.42,6.2,West,15.0,-,N/A,,Scattered Clouds,280,2012-11-10 12:30:00
1:00 PM,46.4,37.4,71,29.42,6.2,West,12.7,-,N/A,,Partly Cloudy,280,2012-11-10 13:00:00
1:30 PM,46.4,39.2,76,29.42,6.2,West,16.1,-,N/A,Rain,Light Rain Showers,280,2012-11-10 13:30:00
2:00 PM,46.4,39.2,76,29.42,6.2,West,15.0,-,N/A,,Scattered Clouds,270,2012-11-10 14:00:00
2:30 PM,46.4,41.0,81,29.42,6.2,West,13.8,-,N/A,,Scattered Clouds,260,2012-11-10 14:30:00
3:00 PM,42.8,39.2,87,29.44,6.2,WNW,13.8,-,N/A,,Scattered Clouds,300,2012-11-10 15:00:00
3:30 PM,41.0,39.2,93,29.44,6.2,WSW,8.1,-,N/A,,Partly Cloudy,250,2012-11-10 15:30:00
4:00 PM,42.8,39.2,87,29.44,6.2,WSW,9.2,-,N/A,,Partly Cloudy,240,2012-11-10 16:00:00
4:30 PM,42.8,39.2,87,29.44,6.2,WSW,10.4,-,N/A,,Partly Cloudy,250,2012-11-10 16:30:00
5:00 PM,42.8,41.0,93,29.44,6.2,WSW,9.2,-,N/A,Rain,Light Rain Showers,250,2012-11-10 17:00:00
5:30 PM,42.8,41.0,93,29.47,6.2,SW,8.1,-,N/A,,Scattered Clouds,230,2012-11-10 17:30:00
6:00 PM,43,41,89,29.49,16,WSW,8.9,,,Rain,Light Rain Showers,240,2012-11-10 18:00:00
6:00 PM,42.8,41.0,93,29.47,6.2,WSW,8.1,-,N/A,,Scattered Clouds,240,2012-11-10 18:00:00
6:30 PM,42.8,41.0,93,29.50,6.2,WSW,5.8,-,N/A,,Scattered Clouds,240,2012-11-10 18:30:00
7:00 PM,42.8,41.0,93,29.50,6.2,WSW,8.1,-,N/A,,Scattered Clouds,240,2012-11-10 19:00:00
7:30 PM,42.8,41.0,93,29.53,6.2,West,6.9,-,N/A,,Partly Cloudy,270,2012-11-10 19:30:00
8:00 PM,42.8,41.0,93,29.53,6.2,West,8.1,-,N/A,,Partly Cloudy,270,2012-11-10 20:00:00
8:30 PM,42.8,41.0,93,29.53,6.2,West,8.1,-,N/A,,Scattered Clouds,280,2012-11-10 20:30:00
9:00 PM,42.8,41.0,93,29.56,6.2,NW,1.2,-,N/A,,Partly Cloudy,310,2012-11-10 21:00:00
9:30 PM,42.8,41.0,93,29.59,6.2,WNW,4.6,-,N/A,,Partly Cloudy,290,2012-11-10 21:30:00
10:00 PM,42.8,41.0,93,29.62,6.2,WNW,5.8,-,N/A,,Partly Cloudy,300,2012-11-10 22:00:00
10:30 PM,42.8,39.2,87,29.65,6.2,WNW,4.6,-,N/A,,Partly Cloudy,290,2012-11-10 22:30:00
11:00 PM,42.8,41.0,93,29.65,6.2,West,5.8,-,N/A,,Partly Cloudy,280,2012-11-10 23:00:00
11:30 PM,44.6,41.0,87,29.68,6.2,West,11.5,-,N/A,,Partly Cloudy,280,2012-11-10 23:30:00